Volver al catálogo

STARLINK-11414

ActivoComunicacionesVLEO
NORAD 61948·PAYLOAD·🇺🇸 United States

Lanzado Nov 14, 2024 desde Vandenberg Space Force Base

Loading…

Próximos Pases (próximas 24 horas)

TLE

ActualizadoSource: CelesTrak SupGP

Época: Sep 14, 2026, 21:08 UTC

1 61948C 24209K   26257.88104167 -.00267340  00000+0 -22028-2 0  2578
2 61948  53.1571 158.4460 0001089  94.7877 309.5394 15.69836747    10

Sigue STARLINK-11414 en tiempo real con AllMySat

Download on the App Store